Spokane, WA

8:54 AM PDT on August 17, 2017 (GMT -0700)
Spokane International

Weather History for KGEG - October, 2012

Change the Weather History Date:

Friday, October 12, 2012

  Actual Average Record
Temperature  
Mean Temperature 52 °F 49 °F  
Max Temperature 64 °F 60 °F 76 °F (1988)
Min Temperature 40 °F 38 °F 19 °F (2002)
Degree Days  
Heating Degree Days 13 16  
Month to date heating degree days 152 162  
Since 1 July heating degree days 254 410  
Cooling Degree Days 0 0  
Month to date cooling degree days 0 0  
Year to date cooling degree days 535 449  
Growing Degree Days 2 (Base 50)    
Moisture  
Dew Point 36 °F    
Average Humidity 59    
Maximum Humidity 83    
Minimum Humidity 34    
Precipitation  
Precipitation T in 0.03 in 0.56 in (1932)
Month to date precipitation T 0.31  
Year to date precipitation 13.96 11.09  
Snow  
Snow 0.00 in 0.00 in 0.70 in (2001)
Month to date snowfall 0.0 0.0  
Since 1 July snowfall 0.0 0.0  
Since 1 September snowfall 0.0 0.0  
Snow Depth 0.00 in    
Sea Level Pressure  
Sea Level Pressure 29.83 in    
Wind  
Wind Speed 8 mph (South)    
Max Wind Speed 17 mph    
Max Gust Speed 22 mph    
Visibility 10 miles    
Events      
T = Trace of Precipitation, MM = Missing Value Source: NWS Daily Summary

Daily Weather History Graph

Daily Weather History Graph

Search for Another Location

Airport or City:

Trip Planner

Search our weather history database for the weather conditions in past years. The results will help you decide how hot, cold, wet, or windy it might be!

Date:

Astronomy

Oct. 12, 2012 Rise Set
Actual Time 7:05 AM PDT 6:06 PM PDT
Civil Twilight 6:34 AM PDT 6:37 PM PDT
Nautical Twilight 5:58 AM PDT 7:13 PM PDT
Astronomical Twilight 5:23 AM PDT 7:48 PM PDT
Moon 3:42 AM PDT (10/12) 4:27 PM PDT (10/12)
Length of Visible Light 12h 03m
Length of Day
11h 01m
Waning Crescent, 10% of the Moon is Illuminated
Oct 12
Waning Crescent
Oct 15
New
Oct 21
First Quarter
Oct 29
Full
Nov 6
Last Quarter

Hourly Weather History & Observations

Time (PDT) Temp. Windchill Dew Point Humidity Pressure Visibility Wind Dir Wind Speed Gust Speed Precip Events Conditions
12:53 AM 50.0 °F - 33.8 °F 54% 29.79 in 10.0 mi SE 3.5 mph - N/A   Clear
1:53 AM 48.9 °F - 34.0 °F 56% 29.78 in 10.0 mi Calm Calm - N/A   Clear
2:53 AM 43.0 °F - 32.0 °F 65% 29.78 in 10.0 mi Calm Calm - N/A   Clear
3:53 AM 44.1 °F - 33.1 °F 65% 29.78 in 10.0 mi Calm Calm - N/A   Clear
4:53 AM 44.1 °F - 33.1 °F 65% 29.78 in 10.0 mi Calm Calm - N/A   Clear
5:53 AM 42.1 °F 39.2 °F 33.1 °F 70% 29.79 in 10.0 mi SSE 4.6 mph - N/A   Clear
6:53 AM 42.1 °F - 33.1 °F 70% 29.79 in 10.0 mi Calm Calm - N/A   Mostly Cloudy
7:53 AM 45.0 °F 42.6 °F 33.1 °F 63% 29.80 in 10.0 mi SE 4.6 mph - N/A   Mostly Cloudy
8:53 AM 48.9 °F - 34.0 °F 56% 29.82 in 9.0 mi South 5.8 mph - N/A   Mostly Cloudy
9:53 AM 51.8 °F - 33.8 °F 50% 29.81 in 9.0 mi SSE 8.1 mph - N/A   Mostly Cloudy
10:53 AM 57.0 °F - 35.1 °F 44% 29.82 in 9.0 mi South 8.1 mph - N/A   Mostly Cloudy
11:53 AM 57.9 °F - 36.0 °F 44% 29.81 in 9.0 mi SSW 6.9 mph - N/A   Mostly Cloudy
12:53 PM 62.1 °F - 36.0 °F 38% 29.81 in 10.0 mi SW 15.0 mph - N/A   Mostly Cloudy
1:53 PM 62.1 °F - 34.0 °F 35% 29.80 in 10.0 mi WSW 11.5 mph - N/A   Mostly Cloudy
2:53 PM 64.4 °F - 35.6 °F 34% 29.82 in 10.0 mi SSW 11.5 mph - N/A   Mostly Cloudy
3:53 PM 64.0 °F - 35.1 °F 34% 29.83 in 10.0 mi SSW 12.7 mph - N/A   Mostly Cloudy
4:53 PM 63.0 °F - 35.1 °F 35% 29.83 in 10.0 mi SSW 15.0 mph 20.7 mph N/A   Overcast
5:53 PM 60.1 °F - 36.0 °F 41% 29.86 in 10.0 mi SSW 15.0 mph - N/A   Overcast
6:53 PM 57.2 °F - 35.6 °F 44% 29.87 in 10.0 mi SSW 11.5 mph - N/A   Overcast
7:53 PM 55.9 °F - 39.0 °F 53% 29.89 in 10.0 mi South 9.2 mph - N/A   Overcast
8:53 PM 54.0 °F - 43.0 °F 66% 29.89 in 10.0 mi South 9.2 mph - N/A   Overcast
9:53 PM 52.0 °F - 45.0 °F 77% 29.91 in 10.0 mi South 8.1 mph - N/A   Overcast
10:53 PM 51.1 °F - 46.0 °F 83% 29.91 in 10.0 mi South 9.2 mph - N/A   Mostly Cloudy
11:53 PM 51.1 °F - 46.0 °F 83% 29.92 in 10.0 mi South 8.1 mph - N/A   Overcast